Regional Weather Roundup
Issued by NWS Mt. Holly, NJ

Home | Current Version | Previous Version | Text Only | Print | Product List | Glossary On
Versions: 1 2 3 4 5 6 7 8 9 10 11 12 13 14 15 16 17 18 19 20 21 22 23 24 25 26 27 28 29 30 31 32 33 34 35 36 37 38 39 40 41 42 43 44 45 46 47 48 49 50
000
ASUS41 KPHI 030210
RWRPHI

REGIONAL WEATHER ROUNDUP
NATIONAL WEATHER SERVICE MOUNT HOLLY NJ
1000 PM EDT TUE SEP 02 2014

NOTE:  "FAIR" INDICATES FEW OR NO CLOUDS BELOW 12,000 FEET WITH NO
SIGNIFICANT WEATHER AND/OR OBSTRUCTIONS TO VISIBILITY.

 * = STATION DOES NOT REPORT PRECIPITATION (E.G. RAIN, SNOW, ETC.)
        OR FOG.

NJZ015>026-030300-
SOUTHERN NEW JERSEY

CITY           SKY/WX    TMP DP  RH WIND       PRES   REMARKS
POMONA         PTCLDY    80  73  79 CALM      29.88R
RIO GRANDE*    PTCLDY    81  72  74 S8        29.89F
MILLVILLE      TSTM      80  69  69 NW16G30   29.90R
WRIGHTSTOWN    CLOUDY    72  69  91 SW6       29.86S
MOUNT HOLLY    CLOUDY    72  68  87 CALM      29.88R
TRENTON        CLOUDY    76  66  71 SW8       29.85S

$$
NJZ001>014-030300-
NORTHERN NEW JERSEY

CITY           SKY/WX    TMP DP  RH WIND       PRES   REMARKS
SUSSEX         CLOUDY    76  71  85 SW3       29.81F
ANDOVER*         N/A     79  69  71 SW8       29.83S
MORRISTOWN     PTCLDY    84  68  58 SW17G26   29.81
NEWARK         MOCLDY    86  69  56 SW17G29   29.80F HX  90
TETERBORO      PTCLDY    86  69  56 S10       29.78F HX  90
CALDWELL       MOCLDY    84  67  56 SW8       29.80F
SOMERVILLE     CLOUDY    83  66  56 SW10G16   29.82R
ALLAIRE*       PTCLDY    81  66  61 SW12G20   29.86R
TOMS RIVER*    PTCLDY    75  70  83 SW6       29.88F

$$
PAZ043-044-047-054-055-060>062-066>071-030300-
EASTERN PENNSYLVANIA

CITY           SKY/WX    TMP DP  RH WIND       PRES   REMARKS
PHILADELPHIA   CLOUDY    76  71  85 SW12      29.90R
NORTH PHILA    CLOUDY    76  68  76 SW7       29.89R
BLUE BELL      CLOUDY    77  70  78 SW8       29.88R
DOYLESTOWN     CLOUDY    76  67  73 SW6       29.87R
QUAKERTOWN*    CLOUDY    73  68  83 MISG      29.89S
POTTSTOWN      CLOUDY    74  68  81 SW5       29.90R
LANCASTER      CLOUDY    73  67  81 W8        29.90S
COATESVILLE    CLOUDY    72  70  94 W7        29.92S
READING        CLOUDY    75  67  76 SW7       29.89R
ALLENTOWN      CLOUDY    76  66  71 SW20G26   29.87R
MOUNT POCONO   CLOUDY    70  67  90 W17G26    29.90R
HAZLETON       CLOUDY    70  68  94 W7        29.95S
WILKES BARRE   CLOUDY    75  70  84 W12       29.88R

$$
DEZALL-MDZ008-012-015-019-020-030300-
DELAWARE AND EASTERN MARYLAND

CITY           SKY/WX    TMP DP  RH WIND       PRES   REMARKS
WILMINGTON     CLOUDY    73  69  87 NW5       29.90F
DOVER          CLOUDY    83  72  69 W7        29.88R
GEORGETOWN     PTCLDY    81  72  74 S9        29.89F
PATUXENT       MOCLDY    85  69  58 SW9       29.90R
OCEAN CITY     CLEAR     82  76  81 SW8       29.90S
WALLOPS ISLAND CLEAR     83  74  74 W9        29.92R
CAMBRIDGE      CLOUDY    82  72  69 NW9       29.90R
SALISBURY      PTCLDY    82  73  74 SW7       29.90S

$$
PAZ001-021-NYZ056-072-MDZ011-DCZ001-030300-
OTHER NEARBY LOCATIONS

CITY           SKY/WX    TMP DP  RH WIND       PRES   REMARKS
HARRISBURG     MOCLDY    76  69  79 W5        29.90R
STATE COLLEGE  PTCLDY    66  65  97 CALM      29.95R
WILLIAMSPORT   MOCLDY    72  66  81 NW8       29.89R
BINGHAMTON     MOCLDY    65  64  97 W10       29.90R
NEW YORK CITY  PTCLDY    84  69  60 W10G17    29.84S
BALTIMORE      CLOUDY    73  72  96 CALM      29.90F
WASHINGTON DC  CLOUDY    80  74  81 E5        29.91S

$$



USA.gov is the U.S. government's official web portal to all federal, state and local government web resources and services.